Retour au catalogue

STARLINK-34185

ActifCommunicationsVLEO
NORAD 64744·PAYLOAD·🇺🇸 United States

Lancé Jul 2, 2025 depuis Cape Canaveral Space Force Station

Loading…

Prochains Passages (prochaines 24 heures)

TLE

FraisSource: CelesTrak SupGP

Époque: Sep 14, 2026, 14:06 UTC

1 64744C 25144W   26257.58798611 -.00092082  00000+0 -27203-2 0  2573
2 64744  53.1607  21.6350 0001411  90.5541 178.3552 15.34439213    14

Suivez STARLINK-34185 en temps réel avec AllMySat

Download on the App Store